Time,TemperatureF,DewpointF,PressureIn,WindDirection,WindDirectionDegrees,WindSpeedMPH,WindSpeedGustMPH,Humidity,HourlyPrecipIn,Conditions,Clouds,dailyrainin,SoftwareType,DateUTC
2013-02-24 00:01:00,23.0,-99.9,29.99,ESE,112,4.0,8.0,0,-99.99,,,0.00,,2013-02-24 05:01:00,
2013-02-24 01:42:00,22.0,-99.9,29.97,SSE,157,0.0,8.0,0,-99.99,,,0.00,,2013-02-24 06:42:00,
2013-02-24 01:52:00,22.0,-99.9,29.97,SSE,157,0.0,8.0,0,-99.99,,,0.00,,2013-02-24 06:52:00,
2013-02-24 02:01:00,22.0,-99.9,29.97,SSE,157,0.0,8.0,0,-99.99,,,0.00,,2013-02-24 07:01:00,
2013-02-24 02:42:00,22.0,-99.9,29.95,SSE,157,3.0,14.0,0,-99.99,,,0.00,,2013-02-24 07:42:00,
2013-02-24 02:52:00,22.0,-99.9,29.95,SSE,157,3.0,14.0,0,-99.99,,,0.00,,2013-02-24 07:52:00,
2013-02-24 03:01:00,22.0,-99.9,29.95,SSE,157,3.0,14.0,0,-99.99,,,0.00,,2013-02-24 08:01:00,
2013-02-24 03:42:00,21.0,-99.9,29.94,ENE,67,0.0,10.0,0,-99.99,,,0.00,,2013-02-24 08:42:00,
2013-02-24 03:54:00,21.0,-99.9,29.94,ENE,67,0.0,10.0,0,-99.99,,,0.00,,2013-02-24 08:54:00,
2013-02-24 04:02:00,21.0,-99.9,29.94,ENE,67,0.0,10.0,0,-99.99,,,0.00,,2013-02-24 09:02:00,
2013-02-24 04:42:00,21.0,-99.9,29.93,East,90,1.0,8.0,0,-99.99,,,0.00,,2013-02-24 09:42:00,
2013-02-24 04:52:00,21.0,-99.9,29.93,East,90,1.0,8.0,0,-99.99,,,0.00,,2013-02-24 09:52:00,
2013-02-24 05:01:00,21.0,-99.9,29.93,East,90,1.0,8.0,0,-99.99,,,0.00,,2013-02-24 10:01:00,
2013-02-24 05:42:00,20.0,-99.9,29.92,ESE,112,0.0,7.0,0,-99.99,,,0.00,,2013-02-24 10:42:00,
2013-02-24 05:52:00,20.0,-99.9,29.92,ESE,112,0.0,7.0,0,-99.99,,,0.00,,2013-02-24 10:52:00,
2013-02-24 06:01:00,20.0,-99.9,29.92,ESE,112,0.0,7.0,0,-99.99,,,0.00,,2013-02-24 11:01:00,
2013-02-24 06:42:00,20.0,-99.9,29.91,ENE,67,0.0,9.0,0,-99.99,,,0.00,,2013-02-24 11:42:00,
2013-02-24 06:53:00,20.0,-99.9,29.91,ENE,67,0.0,9.0,0,-99.99,,,0.00,,2013-02-24 11:53:00,
2013-02-24 07:02:00,20.0,-99.9,29.91,ENE,67,0.0,9.0,0,-99.99,,,0.00,,2013-02-24 12:02:00,
2013-02-24 07:03:00,20.0,-99.9,29.92,SE,135,0.0,7.0,0,-99.99,,,0.00,,2013-02-24 12:03:00,
2013-02-24 07:46:00,20.0,-99.9,29.92,SE,135,0.0,7.0,0,-99.99,,,0.00,,2013-02-24 12:46:00,
2013-02-24 08:03:00,22.0,-99.9,29.92,ESE,112,4.0,8.0,0,-99.99,,,0.00,,2013-02-24 13:03:00,
2013-02-24 08:46:00,22.0,-99.9,29.92,ESE,112,4.0,8.0,0,-99.99,,,0.00,,2013-02-24 13:46:00,
2013-02-24 08:56:00,22.0,-99.9,29.92,ESE,112,4.0,8.0,0,-99.99,,,0.00,,2013-02-24 13:56:00,
2013-02-24 09:03:00,24.0,-99.9,29.90,SE,135,0.0,8.0,0,-99.99,,,0.00,,2013-02-24 14:03:00,
2013-02-24 09:46:00,24.0,-99.9,29.90,SE,135,0.0,8.0,0,-99.99,,,0.00,,2013-02-24 14:46:00,
2013-02-24 09:55:00,24.0,-99.9,29.90,SE,135,0.0,8.0,0,-99.99,,,0.00,,2013-02-24 14:55:00,
2013-02-24 10:42:00,25.0,-99.9,29.90,ESE,112,0.0,10.0,0,-99.99,,,0.00,,2013-02-24 15:42:00,
2013-02-24 10:53:00,25.0,-99.9,29.90,ESE,112,0.0,10.0,0,-99.99,,,0.00,,2013-02-24 15:53:00,
2013-02-24 11:02:00,25.0,-99.9,29.90,ESE,112,0.0,10.0,0,-99.99,,,0.00,,2013-02-24 16:02:00,
2013-02-24 11:42:00,27.0,-99.9,29.88,East,90,2.0,9.0,0,-99.99,,,0.00,,2013-02-24 16:42:00,
2013-02-24 11:52:00,27.0,-99.9,29.88,East,90,2.0,9.0,0,-99.99,,,0.00,,2013-02-24 16:52:00,
2013-02-24 12:01:00,27.0,-99.9,29.88,East,90,2.0,9.0,0,-99.99,,,0.00,,2013-02-24 17:01:00,
2013-02-24 12:42:00,28.0,-99.9,29.85,ESE,112,9.0,9.0,0,-99.99,,,0.00,,2013-02-24 17:42:00,
2013-02-24 12:53:00,28.0,-99.9,29.85,ESE,112,9.0,9.0,0,-99.99,,,0.00,,2013-02-24 17:53:00,
2013-02-24 13:02:00,28.0,-99.9,29.85,ESE,112,9.0,9.0,0,-99.99,,,0.00,,2013-02-24 18:02:00,
2013-02-24 13:42:00,28.0,-99.9,29.85,NE,45,0.0,10.0,0,-99.99,,,0.00,,2013-02-24 18:42:00,
2013-02-24 13:52:00,28.0,-99.9,29.85,NE,45,0.0,10.0,0,-99.99,,,0.00,,2013-02-24 18:52:00,
2013-02-24 14:01:00,28.0,-99.9,29.85,NE,45,0.0,10.0,0,-99.99,,,0.00,,2013-02-24 19:01:00,
2013-02-24 14:42:00,29.0,-99.9,29.83,NE,45,0.0,11.0,0,-99.99,,,0.00,,2013-02-24 19:42:00,
2013-02-24 14:52:00,29.0,-99.9,29.83,NE,45,0.0,11.0,0,-99.99,,,0.00,,2013-02-24 19:52:00,
2013-02-24 15:02:00,29.0,-99.9,29.83,NE,45,0.0,11.0,0,-99.99,,,0.00,,2013-02-24 20:02:00,
2013-02-24 15:42:00,29.0,-99.9,29.83,NE,45,4.0,8.0,0,-99.99,,,0.00,,2013-02-24 20:42:00,
2013-02-24 15:52:00,29.0,-99.9,29.83,NE,45,4.0,8.0,0,-99.99,,,0.00,,2013-02-24 20:52:00,
2013-02-24 16:02:00,29.0,-99.9,29.83,NE,45,4.0,8.0,0,-99.99,,,0.00,,2013-02-24 21:02:00,
2013-02-24 16:42:00,27.0,-99.9,29.83,NE,45,3.0,7.0,0,-99.99,,,0.00,,2013-02-24 21:42:00,
2013-02-24 16:52:00,27.0,-99.9,29.83,NE,45,3.0,7.0,0,-99.99,,,0.00,,2013-02-24 21:52:00,
2013-02-24 17:01:00,27.0,-99.9,29.83,NE,45,3.0,7.0,0,-99.99,,,0.00,,2013-02-24 22:01:00,
2013-02-24 17:42:00,26.0,-99.9,29.82,ENE,67,4.0,5.0,0,-99.99,,,0.00,,2013-02-24 22:42:00,
2013-02-24 17:52:00,26.0,-99.9,29.82,ENE,67,4.0,5.0,0,-99.99,,,0.00,,2013-02-24 22:52:00,
2013-02-24 18:02:00,26.0,-99.9,29.82,ENE,67,4.0,5.0,0,-99.99,,,0.00,,2013-02-24 23:02:00,